Weather History for Homestead AFB, FL

Change the Weather History Date:

Sunday, March 31, 2013

  Actual Average Record
Temperature  
Mean Temperature 72 °F -  
Max Temperature 79 °F 82 °F 89 °F (1939)
Min Temperature 64 °F 63 °F 41 °F (1971)
Cooling Degree Days 6    
Growing Degree Days 22 (Base 50)    
Moisture  
Dew Point 63 °F    
Average Humidity 73    
Maximum Humidity 85    
Minimum Humidity 58    
Precipitation  
Precipitation 0.00 in - - ()
Sea Level Pressure  
Sea Level Pressure 30.13 in    
Wind  
Wind Speed 8 mph (ESE)    
Max Wind Speed 16 mph    
Max Gust Speed 23 mph    
Visibility 10 miles    
Events      
Averages and records for this station are not official NWS values.
T = Trace of Precipitation, MM = Missing Value Source: NWS Daily Summary

Daily Weather History Graph

Daily Weather History Graph

Search for Another Location

Airport:

Trip Planner

Search our weather history database for the weather conditions in past years. The results will help you decide how hot, cold, wet, or windy it might be!

Date:

Astronomy

Mar. 31, 2013 Rise Set
Actual Time 7:13 AM EDT 7:37 PM EDT
Civil Twilight 6:50 AM EDT 8:00 PM EDT
Nautical Twilight 6:23 AM EDT 8:27 PM EDT
Astronomical Twilight 5:56 AM EDT 8:55 PM EDT
Moon No Moon Rise 10:25 AM EDT (3/31)
Length of Visible Light 13h 10m
Length of Day
12h 24m
Waning Gibbous, 78% of the Moon is Illuminated
Mar 31
Waning Gibbous
Apr 3
Last Quarter
Apr 10
New
Apr 18
First Quarter
Apr 25
Full

Hourly Weather History & Observations

Time (EDT) Temp. Dew Point Humidity Pressure Visibility Wind Dir Wind Speed Gust Speed Precip Events Conditions
12:58 AM 66.0 °F 57.7 °F 75% 30.21 in 10.0 mi East 4.6 mph - N/A   Partly Cloudy
1:58 AM 66.6 °F 58.3 °F 75% 30.19 in 10.0 mi East 6.9 mph - N/A   Clear
2:58 AM 66.2 °F 58.5 °F 76% 30.17 in 10.0 mi East 5.8 mph - N/A   Clear
3:58 AM 65.5 °F 58.8 °F 79% 30.15 in 10.0 mi East 4.6 mph - N/A   Clear
4:58 AM 65.7 °F 58.5 °F 78% 30.15 in 10.0 mi East 4.6 mph - N/A   Clear
5:58 AM 64.8 °F 57.9 °F 78% 30.15 in 10.0 mi ESE 4.6 mph - N/A   Clear
6:58 AM 65.1 °F 59.5 °F 82% 30.16 in 10.0 mi East 3.5 mph - N/A   Partly Cloudy
7:58 AM 68.0 °F 62.6 °F 83% 30.16 in 10.0 mi ESE 5.8 mph - N/A   Scattered Clouds
8:58 AM 73.6 °F 63.1 °F 70% 30.17 in 10.0 mi ESE 8.1 mph - N/A   Partly Cloudy
9:28 AM 75.2 °F 62.6 °F 65% 30.16 in 10.0 mi ESE 9.2 mph - N/A   Mostly Cloudy
9:33 AM 75.2 °F 62.6 °F 65% 30.17 in 10.0 mi ESE 12.7 mph - N/A   Scattered Clouds
9:58 AM 74.1 °F 62.4 °F 67% 30.17 in 10.0 mi ESE 13.8 mph - N/A   Partly Cloudy
10:58 AM 77.4 °F 62.2 °F 59% 30.17 in 10.0 mi ESE 13.8 mph 23.0 mph N/A   Partly Cloudy
11:58 AM 78.3 °F 62.6 °F 58% 30.17 in 10.0 mi ESE 16.1 mph - N/A   Partly Cloudy
12:58 PM 78.3 °F 63.7 °F 61% 30.15 in 10.0 mi ESE 15.0 mph 20.7 mph N/A   Clear
1:58 PM 78.3 °F 63.9 °F 61% 30.12 in 10.0 mi SSE 15.0 mph - N/A   Partly Cloudy
2:58 PM 77.5 °F 64.4 °F 64% 30.12 in 10.0 mi ESE 15.0 mph - N/A   Partly Cloudy
3:58 PM 79.2 °F 66.0 °F 64% 30.10 in 10.0 mi SE 15.0 mph 19.6 mph N/A   Partly Cloudy
4:58 PM 77.0 °F 65.8 °F 68% 30.08 in 10.0 mi ESE 12.7 mph - N/A   Partly Cloudy
5:58 PM 77.5 °F 65.8 °F 67% 30.08 in 10.0 mi ESE 12.7 mph - N/A   Scattered Clouds
6:58 PM 75.2 °F 66.4 °F 74% 30.07 in 10.0 mi SE 9.2 mph - N/A   Partly Cloudy
7:58 PM 72.7 °F 66.4 °F 81% 30.07 in 10.0 mi SE 5.8 mph - N/A   Clear
8:58 PM 71.4 °F 66.0 °F 83% 30.08 in 10.0 mi ESE 5.8 mph - N/A   Clear
9:58 PM 71.6 °F 66.6 °F 84% 30.08 in 10.0 mi ESE 8.1 mph - N/A   Clear
10:58 PM 71.8 °F 66.9 °F 85% 30.09 in 10.0 mi SE 5.8 mph - N/A   Clear
11:58 PM 72.0 °F 67.3 °F 85% 30.09 in 10.0 mi SSE 8.1 mph - N/A   Clear